Total_Precipitation_Accumulation
0.75 0.54 0.95 0.97 0.80 0.74 0.78 0.84 0.85 0.88 0.92 0.95 0.89 0.80 0.76 0.63 0.55 0.47 0.41 0.34 0.40 0.50 0.48 0.43 0.38 0.33 0.26 0.24 0.28 0.35 0.44 0.52 0.57 0.60 0.70 0.74 0.70 0.74 0.92 1.13 1.30 1.47 1.08
0.62 0.53 0.94 1.00 0.80 0.71 0.72 0.74 0.80 0.80 0.82 0.84 0.83 0.83 0.68 0.54 0.50 0.46 0.42 0.37 0.38 0.41 0.43 0.45 0.45 0.39 0.32 0.33 0.37 0.42 0.45 0.49 0.60 0.66 0.83 0.89 0.82 0.82 0.79 0.90 1.12 1.27 1.04
0.59 0.56 0.76 0.92 0.77 0.68 0.70 0.73 0.79 0.80 0.80 0.83 0.85 0.89 0.68 0.54 0.52 0.48 0.46 0.45 0.42 0.36 0.38 0.48 0.53 0.49 0.41 0.42 0.46 0.49 0.51 0.54 0.64 0.75 1.12 1.65 1.17 0.87 0.86 0.94 1.00 0.96 1.03
0.67 0.66 0.78 0.98 0.85 0.73 0.72 0.81 0.86 0.89 0.90 0.97 0.96 0.83 0.63 0.58 0.57 0.56 0.57 0.58 0.51 0.39 0.38 0.41 0.46 0.46 0.43 0.47 0.50 0.48 0.54 0.59 0.70 0.82 1.17 1.64 1.55 1.17 1.04 1.09 1.04 0.89 1.03
0.71 0.77 1.03 1.12 0.94 0.83 0.78 0.85 0.96 1.02 0.99 1.02 0.96 0.72 0.61 0.59 0.60 0.61 0.65 0.63 0.57 0.50 0.44 0.41 0.42 0.40 0.41 0.42 0.47 0.51 0.56 0.66 0.85 0.91 1.21 1.56 1.81 1.32 1.03 1.16 1.21 1.04 1.09
0.68 0.69 0.88 1.06 0.93 0.84 0.86 0.93 0.93 0.87 0.88 0.95 0.88 0.70 0.59 0.63 0.63 0.64 0.61 0.57 0.58 0.57 0.52 0.49 0.45 0.42 0.43 0.39 0.43 0.51 0.61 0.71 0.83 1.02 1.27 1.61 1.74 1.26 1.00 1.13 1.26 1.27 1.23
0.73 0.66 0.74 0.90 0.84 0.80 0.86 0.93 0.93 0.84 0.87 0.90 0.86 0.80 0.63 0.60 0.64 0.67 0.59 0.53 0.52 0.53 0.51 0.50 0.47 0.44 0.41 0.41 0.42 0.47 0.59 0.57 0.71 1.00 1.21 1.58 1.40 1.06 0.92 1.06 1.30 1.43 1.34
0.79 0.73 0.69 0.80 0.80 0.76 0.79 0.84 0.87 0.85 0.93 0.91 0.79 0.73 0.69 0.60 0.60 0.61 0.57 0.57 0.54 0.54 0.53 0.51 0.46 0.42 0.42 0.43 0.43 0.46 0.53 0.47 0.49 0.73 0.95 1.31 1.26 1.17 0.94 0.93 1.13 1.31 1.36
0.85 0.80 0.76 0.74 0.76 0.81 0.88 0.85 0.85 0.90 1.00 0.97 0.79 0.71 0.72 0.60 0.53 0.52 0.54 0.55 0.55 0.58 0.62 0.55 0.45 0.39 0.43 0.46 0.45 0.46 0.49 0.50 0.51 0.64 0.76 1.05 1.12 1.15 0.97 0.91 1.01 1.13 1.30
0.81 0.76 0.70 0.69 0.73 0.76 0.86 0.88 0.86 0.85 0.94 0.94 0.82 0.81 0.81 0.65 0.54 0.54 0.53 0.57 0.61 0.64 0.70 0.65 0.55 0.48 0.48 0.50 0.50 0.48 0.47 0.43 0.47 0.54 0.74 0.81 1.01 1.04 0.88 0.84 0.89 0.93 1.02
0.71 0.71 0.68 0.65 0.67 0.73 0.81 0.81 0.91 0.93 0.96 0.89 0.82 0.86 0.77 0.57 0.53 0.56 0.51 0.63 0.73 0.87 0.88 0.79 0.70 0.62 0.56 0.49 0.48 0.48 0.38 0.33 0.49 0.57 0.70 0.83 1.02 1.02 0.85 0.80 0.84 0.78 0.79
0.72 0.71 0.67 0.70 0.68 0.67 0.71 0.94 1.11 0.98 0.89 0.78 0.81 0.78 0.76 0.73 0.70 0.52 0.53 0.69 0.76 0.85 0.88 0.82 0.78 0.64 0.47 0.37 0.42 0.43 0.28 0.31 0.43 0.50 0.56 0.83 1.03 1.08 0.95 0.82 0.78 0.73 0.68
0.68 0.68 0.64 0.62 0.57 0.56 0.70 0.88 1.06 1.11 1.07 1.04 0.90 0.89 0.85 0.76 0.65 0.51 0.49 0.54 0.59 0.68 0.67 0.73 0.71 0.51 0.40 0.40 0.43 0.36 0.30 0.34 0.42 0.49 0.62 0.92 1.09 1.11 1.03 0.88 0.81 0.75 0.68
0.58 0.61 0.58 0.55 0.52 0.50 0.50 0.61 0.76 0.83 0.82 0.84 0.85 0.79 0.80 0.81 0.74 0.64 0.58 0.62 0.65 0.63 0.69 0.75 0.73 0.60 0.51 0.43 0.41 0.40 0.40 0.40 0.46 0.58 0.68 0.87 1.12 1.17 1.14 1.01 0.94 0.86 0.77
0.53 0.55 0.56 0.59 0.56 0.61 0.60 0.57 0.56 0.62 0.67 0.72 0.80 0.72 0.67 0.70 0.73 0.75 0.69 0.73 0.70 0.68 0.71 0.72 0.61 0.60 0.59 0.50 0.46 0.47 0.53 0.47 0.56 0.59 0.69 0.81 1.13 1.44 1.45 1.31 1.15 1.00 0.90
0.50 0.61 0.64 0.59 0.62 0.60 0.56 0.59 0.62 0.62 0.66 0.69 0.73 0.66 0.60 0.60 0.62 0.74 0.73 0.78 0.69 0.71 0.79 0.72 0.65 0.67 0.67 0.58 0.49 0.51 0.53 0.50 0.55 0.62 0.71 0.84 1.00 1.36 1.66 1.65 1.51 1.33 1.10
0.45 0.58 0.69 0.67 0.69 0.65 0.60 0.63 0.66 0.66 0.63 0.65 0.69 0.62 0.58 0.61 0.62 0.74 0.78 0.77 0.75 0.78 0.81 0.84 0.83 0.78 0.70 0.62 0.55 0.53 0.53 0.53 0.58 0.62 0.65 0.82 0.84 0.90 1.26 1.66 1.78 1.68 1.43
0.42 0.52 0.64 0.65 0.70 0.73 0.73 0.73 0.70 0.65 0.67 0.72 0.75 0.70 0.66 0.64 0.67 0.87 0.92 0.81 0.86 0.97 1.00 1.01 0.97 0.89 0.79 0.76 0.75 0.68 0.59 0.56 0.60 0.64 0.65 0.70 0.73 0.68 0.74 0.92 1.17 1.37 1.57
0.43 0.48 0.53 0.59 0.78 0.82 0.78 0.84 0.84 0.80 0.86 0.89 0.92 0.89 0.84 0.81 0.89 1.06 1.13 1.04 1.02 1.17 1.14 1.03 1.04 1.04 0.95 0.94 0.92 0.91 0.76 0.66 0.66 0.64 0.73 0.82 0.81 0.79 0.80 0.65 0.72 0.87 1.18
0.37 0.41 0.47 0.55 0.68 0.80 0.95 1.03 1.11 1.12 1.11 1.23 1.30 1.29 1.12 1.07 1.13 1.28 1.38 1.34 1.30 1.41 1.39 1.27 1.35 1.35 1.25 1.27 1.17 1.06 0.96 0.88 0.84 0.82 0.82 0.90 0.95 0.87 0.88 0.77 0.71 0.62 0.75
0.27 0.31 0.37 0.54 0.70 0.86 0.99 1.13 1.38 1.54 1.64 1.63 1.63 1.70 1.62 1.44 1.52 1.63 1.60 1.82 1.89 1.86 1.85 1.80 1.92 1.93 1.66 1.49 1.73 1.70 1.29 1.02 0.91 0.93 0.98 1.01 1.04 1.04 1.02 0.95 0.86 0.69 0.60
0.17 0.22 0.30 0.44 0.68 0.92 1.15 1.33 1.52 1.84 2.00 2.00 2.06 2.01 1.96 1.85 1.87 1.79 1.87 2.08 2.13 2.23 2.32 2.16 2.28 2.33 2.03 1.73 2.09 2.48 1.98 1.57 1.03 0.84 0.93 1.03 1.13 1.17 1.11 0.97 0.91 0.83 0.72
0.10 0.15 0.22 0.34 0.57 0.88 1.19 1.45 1.64 1.88 2.14 2.24 2.15 2.10 2.13 2.21 2.26 2.15 2.11 2.23 2.25 2.32 2.51 2.55 2.49 2.55 2.46 2.16 2.12 2.52 2.37 2.03 1.61 1.06 0.94 1.03 1.17 1.25 1.26 1.22 1.07 0.98 0.88
0.12 0.14 0.18 0.32 0.48 0.72 0.99 1.32 1.57 1.84 2.15 2.22 2.20 2.17 2.21 2.33 2.42 2.38 2.33 2.39 2.39 2.35 2.47 2.56 2.53 2.73 2.88 2.60 2.34 2.11 2.02 2.02 2.00 1.55 1.13 1.08 1.25 1.31 1.33 1.25 1.22 1.21 1.18
0.17 0.19 0.25 0.39 0.54 0.74 0.98 1.30 1.63 1.82 1.99 2.19 2.20 2.12 2.05 2.12 2.14 2.12 2.24 2.39 2.41 2.38 2.39 2.57 2.68 2.85 2.84 2.74 2.58 2.45 2.25 2.06 1.72 1.78 1.64 1.38 1.37 1.28 1.34 1.44 1.43 1.43 1.39
0.27 0.32 0.39 0.51 0.72 0.87 0.97 1.12 1.29 1.50 1.78 1.92 2.02 2.06 2.07 2.07 1.95 1.87 1.98 2.09 2.18 2.23 2.21 2.27 2.42 2.56 2.73 2.87 2.79 2.60 2.47 2.33 2.13 2.00 1.73 1.56 1.63 1.46 1.33 1.35 1.40 1.44 1.57